Voltar ao catálogo

HOTBIRD 13F

AtivoComunicaçõesGEO
NORAD 54048·PAYLOAD·🇪🇺 EU

Lançado Oct 15, 2022 de Cape Canaveral Space Force Station

Loading…

TLE

AtualizadoSource: Space-Track

Época: Sep 14, 2026, 13:51 UTC

1 54048U 22134A   26257.57770103  .00000079  00000-0  00000-0 0  9991
2 54048   0.0633 290.5569 0002003  76.3962 207.5719  1.00272141 14272

Acompanhe HOTBIRD 13F em tempo real com AllMySat

Download on the App Store